Hourly Data Report for May 30, 2021

TORONTO CITY
ONTARIO
Current Station Operator: ECCC - MSC

43°40'00.000" N
79°24'00.000" W
112.50 m
6158355
71508
XTO

Download Data

Hourly Data (May 2021)
Hourly Data Report for May 30, 2021
TIME
LST
Temp Definition
°C
Dew Point Definition
°C
Rel Hum Definition
%
Precip. Amount Definition
mm

Wind Dir Definition
10's deg

Wind Spd Definition
km/h
Visibility Definition
km
Stn Press Definition
kPa
Hmdx Definition


Wind Chill Definition


Weather Definition


00:00 10.1 -0.8 47 0.0       100.98     LegendNANA
01:00 8.6 0.3 56 0.0       100.99     LegendNANA
02:00 9.6 0.3 52 0.0       100.99     LegendNANA
03:00 10.4 -0.3 47 0.0       100.97     LegendNANA
04:00 10.4 -0.6 46 0.0       101.02     LegendNANA
05:00 10.4 -0.6 47 0.0       101.05     LegendNANA
06:00 10.0 -0.1 49 0.0       101.10     LegendNANA
07:00 11.4 0.3 46 0.0       101.14     LegendNANA
08:00 12.7 1.8 47 0.0       101.19     LegendNANA
09:00 13.1 2.8 50 0.0       101.23     LegendNANA
10:00 14.0 1.1 42 0.0       101.21     LegendNANA
11:00 15.5 0.8 37 0.0       101.16     LegendNANA
12:00 16.3 2.6 40 0.0       101.14     LegendNANA
13:00 17.4 -2.8 25 0.0       101.08     LegendNANA
14:00 17.6 0.4 31 0.0       101.06     LegendNANA
15:00 17.4 -0.9 29 0.0       101.02     LegendNANA
16:00 18.0 1.7 33 0.0       101.00     LegendNANA
17:00 16.8 0.2 33 0.0       100.98     LegendNANA
18:00 16.4 -1.4 30 0.0       100.94     LegendNANA
19:00 15.5 -1.3 32 0.0       100.98     LegendNANA
20:00 14.0 -0.4 37 0.0       100.99     LegendNANA
21:00 12.8 -0.1 41 0.0       100.99     LegendNANA
22:00 12.1 0.7 46 0.0       101.01     LegendNANA
23:00 11.4 1.9 52 0.0       101.01     LegendNANA

Notes on Data Quality.

Legend

  • E = Estimated
  • M = Missing
  • NA = Not Available*
  • [empty] = Indicates an unobserved value
Date modified: